Simultaneous Nadir Overpasses (SNOs) Predictions

Prediction of SNOs between METOP-B and TERRA Satellite Orbit:

Table of predicted SNOs for the next 14.0 days since TLE Epoch: 2/1/2025
Index Date (METOP-B) Time (METOP-B) Lat,Lon (METOP-B) SZA (METOP-B ) Date (TERRA) Time (TERRA) Lat,Lon (TERRA) SZA (TERRA ) Distance(km) Time Diff (sec)
1 02/01/2025 22:34:15 79.00,-149.63 95.81 02/01/2025 22:35:08 79.00,-149.66 95.81 0.76 53
2 02/01/2025 23:24:50 -79.24, 19.38 83.93 02/01/2025 23:24:23 -79.25, 19.49 83.92 2.57 27
3 02/04/2025 12:14:03 -78.99,-174.68 84.97 02/04/2025 12:14:52 -78.99,-174.68 84.97 0.25 49
4 02/04/2025 13:04:36 79.25, -5.57 95.31 02/04/2025 13:04:04 79.25, -5.50 95.32 1.61 32
5 02/07/2025 01:53:51 78.94, 160.04 94.19 02/07/2025 01:54:34 78.95, 160.11 94.20 1.85 43
6 02/07/2025 02:44:22 -79.33, -29.93 85.38 02/07/2025 02:43:46 -79.33, -29.99 85.39 1.38 36
7 02/09/2025 15:33:39 -78.95, 135.12 86.62 02/09/2025 15:34:17 -78.96, 135.18 86.62 1.44 38
8 02/09/2025 16:24:11 79.24, -55.55 93.70 02/09/2025 16:23:28 79.25, -55.42 93.71 3.07 43
9 02/12/2025 05:13:25 78.96, 110.18 92.54 02/12/2025 05:13:56 78.97, 110.28 92.55 2.44 31
10 02/12/2025 06:03:56 -79.35, -79.76 87.03 02/12/2025 06:03:08 -79.34, -79.82 87.04 1.30 48
11 02/14/2025 18:53:12 -78.99, 85.40 88.30 02/14/2025 18:53:37 -78.98, 85.42 88.30 0.54 25



Historial Predications of SNOs between METOP-B and TERRA
